Location: Unspecified
(0.0000°N, 0.0000°E)
Time: 09:52:21
(UTC+00:00)

ARIANE 6 FM1 Upper Stage - Pass Details

Date: 12 April 2026
Orbit: 524 x 604 km, 62.0° (Epoch: 10 April)

Event Time Altitude Azimuth Distance (km) Brightness Sun altitude
Rises 04:24:40 0° 3° (N) 2,652 6.3 -23.8°
Reaches altitude 10° 04:27:29 10° 25° (NNE) 1,777 5.6 -23.1°
Maximum altitude 04:30:04 17° 66° (ENE) 1,421 5.6 -22.4°
Drops below altitude 10° 04:32:41 10° 106° (ESE) 1,809 6.2 -21.8°
Sets 04:35:35 0° 127° (SE) 2,723 6.8 -21.1°
